Change the Weather History Date:

Tuesday, May 13, 2014

  Actual Average Record
Temperature  
Mean Temperature 75 °F -  
Max Temperature 88 °F 83 °F 94 °F (1962)
Min Temperature 62 °F 59 °F 42 °F (1960)
Cooling Degree Days 10    
Growing Degree Days 25 (Base 50)    
Moisture  
Dew Point 64 °F    
Average Humidity 71    
Maximum Humidity 93    
Minimum Humidity 41    
Precipitation  
Precipitation 0.00 in - - ()
Sea Level Pressure  
Sea Level Pressure 30.06 in    
Wind  
Wind Speed 2 mph (SSE)    
Max Wind Speed 10 mph    
Max Gust Speed 16 mph    
Visibility 9 miles    
Events Hail    
Averages and records for this station are not official NWS values.
T = Trace of Precipitation, MM = Missing Value Source: NWS Daily Summary

Daily Weather History Graph

Daily Weather History Graph

Search for Another Location

Airport or City:

Trip Planner

Search our weather history database for the weather conditions in past years. The results will help you decide how hot, cold, wet, or windy it might be!

Date:

Astronomy

May. 13, 2014 Rise Set
Actual Time 5:50 AM CDT 7:35 PM CDT
Civil Twilight 5:24 AM CDT 8:01 PM CDT
Nautical Twilight 4:52 AM CDT 8:34 PM CDT
Astronomical Twilight 4:18 AM CDT 9:08 PM CDT
Moon 6:40 PM CDT (5/13) 5:01 AM CDT (5/13)
Length of Visible Light 14h 37m
Length of Day
13h 44m
Waxing Gibbous, 99% of the Moon is Illuminated
May 13
Waxing Gibbous
May 14
Full
May 21
Last Quarter
May 28
New
Jun 5
First Quarter

Hourly Weather History & Observations

Time (CDT) Temp. Heat Index Dew Point Humidity Pressure Visibility Wind Dir Wind Speed Gust Speed Precip Events Conditions
1:56 AM 64.9 °F - 62.1 °F 90% 30.06 in 8.0 mi Calm Calm - N/A   Clear
3:56 AM 63.0 °F - 60.1 °F 90% 30.06 in 10.0 mi Calm Calm - N/A   Clear
4:56 AM 63.0 °F - 60.1 °F 90% 30.07 in 10.0 mi Calm Calm - N/A   Clear
5:56 AM 62.1 °F - 60.1 °F 93% 30.08 in 8.0 mi Calm Calm - N/A   Clear
6:20 AM 62.6 °F - 59.0 °F 88% 30.09 in 7.0 mi Calm Calm - N/A   Partly Cloudy
6:56 AM 66.0 °F - 63.0 °F 90% 30.10 in 6.0 mi Calm Calm - N/A   Partly Cloudy
8:56 AM 77.0 °F - 69.1 °F 76% 30.11 in 10.0 mi ESE 5.8 mph - N/A   Clear
9:56 AM 79.0 °F - 68.0 °F 69% 30.11 in 9.0 mi Variable 3.5 mph - N/A   Clear
11:56 AM 84.0 °F 87.0 °F 68.0 °F 58% 30.10 in 10.0 mi SSE 6.9 mph - N/A   Mostly Cloudy
12:56 PM 84.0 °F 86.5 °F 66.9 °F 56% 30.09 in 10.0 mi SSW 4.6 mph - N/A   Partly Cloudy
1:56 PM 88.0 °F 89.6 °F 64.9 °F 46% 30.06 in 10.0 mi Variable 6.9 mph - N/A   Clear
2:56 PM 86.0 °F 86.8 °F 63.0 °F 46% 30.04 in 10.0 mi ESE 9.2 mph - N/A   Scattered Clouds
3:56 PM 87.1 °F 87.8 °F 63.0 °F 44% 30.02 in 10.0 mi ESE 10.4 mph 16.1 mph N/A   Partly Cloudy
4:56 PM 86.0 °F 85.7 °F 60.1 °F 41% 30.01 in 10.0 mi SSE 6.9 mph - N/A   Clear
5:56 PM 84.0 °F 84.5 °F 62.1 °F 47% 30.01 in 10.0 mi SSE 5.8 mph - N/A   Partly Cloudy
6:00 PM - - - N/A% - - North - - N/A Hail Hail
7:56 PM 75.0 °F - 66.0 °F 73% 30.02 in 10.0 mi Calm Calm - N/A   Clear
8:56 PM 73.0 °F - 66.0 °F 79% 30.04 in 10.0 mi Calm Calm - N/A   Clear
9:56 PM 69.1 °F - 66.0 °F 90% 30.06 in 8.0 mi Calm Calm - N/A   Clear
10:56 PM 73.0 °F - 64.9 °F 76% 30.06 in 8.0 mi SSW 4.6 mph - N/A   Scattered Clouds
11:56 PM 70.0 °F - 64.9 °F 84% 30.06 in 10.0 mi Calm Calm - N/A   Clear